owner,sensor,date,latitude,longitude,air_temperature,qcFlag 
COMPS,ioos:station:USF.COMPS:NFB:1,2011-02-01T00:00:00Z,25.0840,-81.0960,21.4,1111122 
COMPS,ioos:station:USF.COMPS:NFB:1,2011-02-01T00:06:00Z,25.0840,-81.0960,21.13,1111122 
COMPS,ioos:station:USF.COMPS:NFB:1,2011-02-01T00:12:00Z,25.0840,-81.0960,21.13,1111122 
COMPS,ioos:station:USF.COMPS:NFB:1,2011-02-01T00:18:00Z,25.0840,-81.0960,21.14,1111122 
COMPS,ioos:station:USF.COMPS:NFB:1,2011-02-01T00:24:00Z,25.0840,-81.0960,21.19,1111122 
COMPS,ioos:station:USF.COMPS:NFB:1,2011-02-01T00:30:00Z,25.0840,-81.0960,20.82,1111122 
COMPS,ioos:station:USF.COMPS:NFB:1,2011-02-01T00:36:00Z,25.0840,-81.0960,20.95,1111122 
COMPS,ioos:station:USF.COMPS:NFB:1,2011-02-01T00:42:00Z,25.0840,-81.0960,21.09,1111122 
COMPS,ioos:station:USF.COMPS:NFB:1,2011-02-01T00:48:00Z,25.0840,-81.0960,21.14,1111122 
COMPS,ioos:station:USF.COMPS:NFB:1,2011-02-01T00:54:00Z,25.0840,-81.0960,21.21,1111122 
COMPS,ioos:station:USF.COMPS:NFB:1,2011-02-01T01:00:00Z,25.0840,-81.0960,21.2,1111122 
COMPS,ioos:station:USF.COMPS:NFB:1,2011-02-01T02:00:00Z,25.0840,-81.0960,21.5,1111122 
COMPS,ioos:station:USF.COMPS:NFB:1,2011-02-01T03:00:00Z,25.0840,-81.0960,21.3,1111122 
COMPS,ioos:station:USF.COMPS:NFB:1,2011-02-01T04:00:00Z,25.0840,-81.0960,21.0,1111122 
COMPS,ioos:station:USF.COMPS:NFB:1,2011-02-01T04:06:00Z,25.0840,-81.0960,21.04,1111122 
COMPS,ioos:station:USF.COMPS:NFB:1,2011-02-01T04:12:00Z,25.0840,-81.0960,20.93,1111122 
COMPS,ioos:station:USF.COMPS:NFB:1,2011-02-01T04:18:00Z,25.0840,-81.0960,20.74,1111122 
COMPS,ioos:station:USF.COMPS:NFB:1,2011-02-01T04:24:00Z,25.0840,-81.0960,20.73,1111122 
COMPS,ioos:station:USF.COMPS:NFB:1,2011-02-01T04:30:00Z,25.0840,-81.0960,20.63,1111122 
COMPS,ioos:station:USF.COMPS:NFB:1,2011-02-01T04:36:00Z,25.0840,-81.0960,20.64,1111122 
COMPS,ioos:station:USF.COMPS:NFB:1,2011-02-01T04:42:00Z,25.0840,-81.0960,20.62,1111122 
COMPS,ioos:station:USF.COMPS:NFB:1,2011-02-01T04:48:00Z,25.0840,-81.0960,20.59,1111122 
COMPS,ioos:station:USF.COMPS:NFB:1,2011-02-01T04:54:00Z,25.0840,-81.0960,20.58,1111122 
COMPS,ioos:station:USF.COMPS:NFB:1,2011-02-01T05:00:00Z,25.0840,-81.0960,20.6,1111122 
COMPS,ioos:station:USF.COMPS:NFB:1,2011-02-01T06:00:00Z,25.0840,-81.0960,20.7,1111122 
COMPS,ioos:station:USF.COMPS:NFB:1,2011-02-01T07:00:00Z,25.0840,-81.0960,20.5,1111122 
COMPS,ioos:station:USF.COMPS:NFB:1,2011-02-01T08:00:00Z,25.0840,-81.0960,20.5,1111122 
COMPS,ioos:station:USF.COMPS:NFB:1,2011-02-01T09:00:00Z,25.0840,-81.0960,20.8,1111122 
COMPS,ioos:station:USF.COMPS:NFB:1,2011-02-01T10:00:00Z,25.0840,-81.0960,21.1,1111122 
COMPS,ioos:station:USF.COMPS:NFB:1,2011-02-01T10:06:00Z,25.0840,-81.0960,21.14,1111122 
COMPS,ioos:station:USF.COMPS:NFB:1,2011-02-01T10:12:00Z,25.0840,-81.0960,21.16,1111122 
COMPS,ioos:station:USF.COMPS:NFB:1,2011-02-01T10:18:00Z,25.0840,-81.0960,21.24,1111122 
COMPS,ioos:station:USF.COMPS:NFB:1,2011-02-01T10:24:00Z,25.0840,-81.0960,21.26,1111122 
COMPS,ioos:station:USF.COMPS:NFB:1,2011-02-01T10:30:00Z,25.0840,-81.0960,21.1,1111122 
COMPS,ioos:station:USF.COMPS:NFB:1,2011-02-01T10:36:00Z,25.0840,-81.0960,21.14,1111122 
COMPS,ioos:station:USF.COMPS:NFB:1,2011-02-01T10:42:00Z,25.0840,-81.0960,21.18,1111122 
COMPS,ioos:station:USF.COMPS:NFB:1,2011-02-01T10:48:00Z,25.0840,-81.0960,21.17,1111122 
COMPS,ioos:station:USF.COMPS:NFB:1,2011-02-01T10:54:00Z,25.0840,-81.0960,21.16,1111122 
COMPS,ioos:station:USF.COMPS:NFB:1,2011-02-01T11:00:00Z,25.0840,-81.0960,21.2,1111122 
COMPS,ioos:station:USF.COMPS:NFB:1,2011-02-01T12:00:00Z,25.0840,-81.0960,21.2,1111122 
COMPS,ioos:station:USF.COMPS:NFB:1,2011-02-01T13:00:00Z,25.0840,-81.0960,21.1,1111122 
COMPS,ioos:station:USF.COMPS:NFB:1,2011-02-01T14:00:00Z,25.0840,-81.0960,21.7,1111122 
COMPS,ioos:station:USF.COMPS:NFB:1,2011-02-01T14:06:00Z,25.0840,-81.0960,21.86,1111122 
COMPS,ioos:station:USF.COMPS:NFB:1,2011-02-01T14:12:00Z,25.0840,-81.0960,21.83,1111122 
COMPS,ioos:station:USF.COMPS:NFB:1,2011-02-01T14:18:00Z,25.0840,-81.0960,21.81,1111122 
COMPS,ioos:station:USF.COMPS:NFB:1,2011-02-01T14:24:00Z,25.0840,-81.0960,21.81,1111122 
COMPS,ioos:station:USF.COMPS:NFB:1,2011-02-01T14:30:00Z,25.0840,-81.0960,21.71,1111122 
COMPS,ioos:station:USF.COMPS:NFB:1,2011-02-01T14:36:00Z,25.0840,-81.0960,21.81,1111122 
COMPS,ioos:station:USF.COMPS:NFB:1,2011-02-01T14:42:00Z,25.0840,-81.0960,21.81,1111122 
COMPS,ioos:station:USF.COMPS:NFB:1,2011-02-01T14:48:00Z,25.0840,-81.0960,21.81,1111122 
COMPS,ioos:station:USF.COMPS:NFB:1,2011-02-01T14:54:00Z,25.0840,-81.0960,21.81,1111122 
COMPS,ioos:station:USF.COMPS:NFB:1,2011-02-01T15:00:00Z,25.0840,-81.0960,21.8,1111122 
COMPS,ioos:station:USF.COMPS:NFB:1,2011-02-01T16:00:00Z,25.0840,-81.0960,22.2,1111122 
COMPS,ioos:station:USF.COMPS:NFB:1,2011-02-01T16:06:00Z,25.0840,-81.0960,22.27,1111122 
COMPS,ioos:station:USF.COMPS:NFB:1,2011-02-01T16:12:00Z,25.0840,-81.0960,22.23,1111122 
COMPS,ioos:station:USF.COMPS:NFB:1,2011-02-01T16:18:00Z,25.0840,-81.0960,22.3,1111122 
COMPS,ioos:station:USF.COMPS:NFB:1,2011-02-01T16:24:00Z,25.0840,-81.0960,22.2,1111122 
COMPS,ioos:station:USF.COMPS:NFB:1,2011-02-01T16:30:00Z,25.0840,-81.0960,22.15,1111122 
COMPS,ioos:station:USF.COMPS:NFB:1,2011-02-01T16:36:00Z,25.0840,-81.0960,22.33,1111122 
COMPS,ioos:station:USF.COMPS:NFB:1,2011-02-01T16:42:00Z,25.0840,-81.0960,22.46,1111122 
COMPS,ioos:station:USF.COMPS:NFB:1,2011-02-01T16:48:00Z,25.0840,-81.0960,22.49,1111122 
COMPS,ioos:station:USF.COMPS:NFB:1,2011-02-01T16:54:00Z,25.0840,-81.0960,22.41,1111122 
COMPS,ioos:station:USF.COMPS:NFB:1,2011-02-01T17:00:00Z,25.0840,-81.0960,22.4,1111122 
COMPS,ioos:station:USF.COMPS:NFB:1,2011-02-01T17:06:00Z,25.0840,-81.0960,22.47,1111122 
COMPS,ioos:station:USF.COMPS:NFB:1,2011-02-01T17:12:00Z,25.0840,-81.0960,22.49,1111122 
COMPS,ioos:station:USF.COMPS:NFB:1,2011-02-01T17:18:00Z,25.0840,-81.0960,22.51,1111122 
COMPS,ioos:station:USF.COMPS:NFB:1,2011-02-01T17:24:00Z,25.0840,-81.0960,22.49,1111122 
COMPS,ioos:station:USF.COMPS:NFB:1,2011-02-01T17:30:00Z,25.0840,-81.0960,22.42,1111122 
COMPS,ioos:station:USF.COMPS:NFB:1,2011-02-01T17:36:00Z,25.0840,-81.0960,22.49,1111122 
COMPS,ioos:station:USF.COMPS:NFB:1,2011-02-01T17:42:00Z,25.0840,-81.0960,22.48,1111122 
COMPS,ioos:station:USF.COMPS:NFB:1,2011-02-01T17:48:00Z,25.0840,-81.0960,22.37,1111122 
COMPS,ioos:station:USF.COMPS:NFB:1,2011-02-01T17:54:00Z,25.0840,-81.0960,22.33,1111122 
COMPS,ioos:station:USF.COMPS:NFB:1,2011-02-01T18:00:00Z,25.0840,-81.0960,22.3,1111122 
COMPS,ioos:station:USF.COMPS:NFB:1,2011-02-01T19:00:00Z,25.0840,-81.0960,22.3,1111122 
COMPS,ioos:station:USF.COMPS:NFB:1,2011-02-01T20:00:00Z,25.0840,-81.0960,22.1,1111122 
COMPS,ioos:station:USF.COMPS:NFB:1,2011-02-01T21:00:00Z,25.0840,-81.0960,22.4,1111122 
COMPS,ioos:station:USF.COMPS:NFB:1,2011-02-01T21:06:00Z,25.0840,-81.0960,22.35,1111122 
COMPS,ioos:station:USF.COMPS:NFB:1,2011-02-01T21:12:00Z,25.0840,-81.0960,22.36,1111122 
COMPS,ioos:station:USF.COMPS:NFB:1,2011-02-01T21:18:00Z,25.0840,-81.0960,22.41,1111122 
COMPS,ioos:station:USF.COMPS:NFB:1,2011-02-01T21:24:00Z,25.0840,-81.0960,22.35,1111122 
COMPS,ioos:station:USF.COMPS:NFB:1,2011-02-01T21:30:00Z,25.0840,-81.0960,22.24,1111122 
COMPS,ioos:station:USF.COMPS:NFB:1,2011-02-01T21:36:00Z,25.0840,-81.0960,22.35,1111122 
COMPS,ioos:station:USF.COMPS:NFB:1,2011-02-01T21:42:00Z,25.0840,-81.0960,22.35,1111122 
COMPS,ioos:station:USF.COMPS:NFB:1,2011-02-01T21:48:00Z,25.0840,-81.0960,22.35,1111122 
COMPS,ioos:station:USF.COMPS:NFB:1,2011-02-01T21:54:00Z,25.0840,-81.0960,22.35,1111122 
COMPS,ioos:station:USF.COMPS:NFB:1,2011-02-01T22:00:00Z,25.0840,-81.0960,22.4,1111122 
COMPS,ioos:station:USF.COMPS:NFB:1,2011-02-01T23:00:00Z,25.0840,-81.0960,22.2,1111122 
COMPS,ioos:station:USF.COMPS:NFB:1,2011-02-02T00:00:00Z,25.0840,-81.0960,22.2,1111122 
COMPS,ioos:station:USF.COMPS:NFB:1,2011-02-02T00:06:00Z,25.0840,-81.0960,22.24,1111122 
COMPS,ioos:station:USF.COMPS:NFB:1,2011-02-02T00:12:00Z,25.0840,-81.0960,22.33,1111122 
COMPS,ioos:station:USF.COMPS:NFB:1,2011-02-02T00:18:00Z,25.0840,-81.0960,22.25,1111122 
COMPS,ioos:station:USF.COMPS:NFB:1,2011-02-02T00:24:00Z,25.0840,-81.0960,22.29,1111122 
COMPS,ioos:station:USF.COMPS:NFB:1,2011-02-02T00:30:00Z,25.0840,-81.0960,22.24,1111122 
COMPS,ioos:station:USF.COMPS:NFB:1,2011-02-02T00:36:00Z,25.0840,-81.0960,22.35,1111122 
COMPS,ioos:station:USF.COMPS:NFB:1,2011-02-02T00:42:00Z,25.0840,-81.0960,22.27,1111122 
COMPS,ioos:station:USF.COMPS:NFB:1,2011-02-02T00:48:00Z,25.0840,-81.0960,22.22,1111122 
COMPS,ioos:station:USF.COMPS:NFB:1,2011-02-02T00:54:00Z,25.0840,-81.0960,22.22,1111122 
COMPS,ioos:station:USF.COMPS:NFB:1,2011-02-02T01:00:00Z,25.0840,-81.0960,22.2,1111122 
COMPS,ioos:station:USF.COMPS:NFB:1,2011-02-02T02:00:00Z,25.0840,-81.0960,22.5,1111122 
COMPS,ioos:station:USF.COMPS:NFB:1,2011-02-02T03:00:00Z,25.0840,-81.0960,22.4,1111122 
COMPS,ioos:station:USF.COMPS:NFB:1,2011-02-02T03:06:00Z,25.0840,-81.0960,22.29,1111122 
COMPS,ioos:station:USF.COMPS:NFB:1,2011-02-02T03:12:00Z,25.0840,-81.0960,22.22,1111122 
COMPS,ioos:station:USF.COMPS:NFB:1,2011-02-02T03:18:00Z,25.0840,-81.0960,22.22,1111122 
COMPS,ioos:station:USF.COMPS:NFB:1,2011-02-02T03:24:00Z,25.0840,-81.0960,22.22,1111122 
COMPS,ioos:station:USF.COMPS:NFB:1,2011-02-02T03:30:00Z,25.0840,-81.0960,21.99,1111122 
COMPS,ioos:station:USF.COMPS:NFB:1,2011-02-02T03:36:00Z,25.0840,-81.0960,22.08,1111122 
COMPS,ioos:station:USF.COMPS:NFB:1,2011-02-02T03:42:00Z,25.0840,-81.0960,22.08,1111122 
COMPS,ioos:station:USF.COMPS:NFB:1,2011-02-02T03:48:00Z,25.0840,-81.0960,22.08,1111122 
COMPS,ioos:station:USF.COMPS:NFB:1,2011-02-02T03:54:00Z,25.0840,-81.0960,22.08,1111122 
COMPS,ioos:station:USF.COMPS:NFB:1,2011-02-02T04:00:00Z,25.0840,-81.0960,22.1,1111122 
COMPS,ioos:station:USF.COMPS:NFB:1,2011-02-02T04:06:00Z,25.0840,-81.0960,22.06,1111122 
COMPS,ioos:station:USF.COMPS:NFB:1,2011-02-02T04:12:00Z,25.0840,-81.0960,21.97,1111122 
COMPS,ioos:station:USF.COMPS:NFB:1,2011-02-02T04:18:00Z,25.0840,-81.0960,21.95,1111122 
COMPS,ioos:station:USF.COMPS:NFB:1,2011-02-02T04:24:00Z,25.0840,-81.0960,21.96,1111122 
COMPS,ioos:station:USF.COMPS:NFB:1,2011-02-02T04:30:00Z,25.0840,-81.0960,21.75,1111122 
COMPS,ioos:station:USF.COMPS:NFB:1,2011-02-02T04:36:00Z,25.0840,-81.0960,21.78,1111122 
COMPS,ioos:station:USF.COMPS:NFB:1,2011-02-02T04:42:00Z,25.0840,-81.0960,21.67,1111122 
COMPS,ioos:station:USF.COMPS:NFB:1,2011-02-02T04:48:00Z,25.0840,-81.0960,21.55,1111122 
COMPS,ioos:station:USF.COMPS:NFB:1,2011-02-02T04:54:00Z,25.0840,-81.0960,21.54,1111122 
COMPS,ioos:station:USF.COMPS:NFB:1,2011-02-02T05:00:00Z,25.0840,-81.0960,21.5,1111122 
COMPS,ioos:station:USF.COMPS:NFB:1,2011-02-02T06:00:00Z,25.0840,-81.0960,21.7,1111122 
COMPS,ioos:station:USF.COMPS:NFB:1,2011-02-02T07:00:00Z,25.0840,-81.0960,21.2,1111122 
COMPS,ioos:station:USF.COMPS:NFB:1,2011-02-02T08:00:00Z,25.0840,-81.0960,21.3,1111122 
COMPS,ioos:station:USF.COMPS:NFB:1,2011-02-02T08:06:00Z,25.0840,-81.0960,21.21,1111122 
COMPS,ioos:station:USF.COMPS:NFB:1,2011-02-02T08:12:00Z,25.0840,-81.0960,21.13,1111122 
COMPS,ioos:station:USF.COMPS:NFB:1,2011-02-02T08:18:00Z,25.0840,-81.0960,21.13,1111122 
COMPS,ioos:station:USF.COMPS:NFB:1,2011-02-02T08:24:00Z,25.0840,-81.0960,21.07,1111122 
COMPS,ioos:station:USF.COMPS:NFB:1,2011-02-02T08:30:00Z,25.0840,-81.0960,20.99,1111122 
COMPS,ioos:station:USF.COMPS:NFB:1,2011-02-02T08:36:00Z,25.0840,-81.0960,21.13,1111122 
COMPS,ioos:station:USF.COMPS:NFB:1,2011-02-02T08:42:00Z,25.0840,-81.0960,21.14,1111122 
COMPS,ioos:station:USF.COMPS:NFB:1,2011-02-02T08:48:00Z,25.0840,-81.0960,21.26,1111122 
COMPS,ioos:station:USF.COMPS:NFB:1,2011-02-02T08:54:00Z,25.0840,-81.0960,21.36,1111122 
COMPS,ioos:station:USF.COMPS:NFB:1,2011-02-02T09:00:00Z,25.0840,-81.0960,21.4,1111122 
COMPS,ioos:station:USF.COMPS:NFB:1,2011-02-02T10:00:00Z,25.0840,-81.0960,21.5,1111122 
COMPS,ioos:station:USF.COMPS:NFB:1,2011-02-02T11:00:00Z,25.0840,-81.0960,21.5,1111122 
COMPS,ioos:station:USF.COMPS:NFB:1,2011-02-02T11:06:00Z,25.0840,-81.0960,21.54,1111122 
COMPS,ioos:station:USF.COMPS:NFB:1,2011-02-02T11:12:00Z,25.0840,-81.0960,21.51,1111122 
COMPS,ioos:station:USF.COMPS:NFB:1,2011-02-02T11:18:00Z,25.0840,-81.0960,21.43,1111122 
COMPS,ioos:station:USF.COMPS:NFB:1,2011-02-02T11:24:00Z,25.0840,-81.0960,21.43,1111122 
COMPS,ioos:station:USF.COMPS:NFB:1,2011-02-02T11:30:00Z,25.0840,-81.0960,21.29,1111122 
COMPS,ioos:station:USF.COMPS:NFB:1,2011-02-02T11:36:00Z,25.0840,-81.0960,21.34,1111122 
COMPS,ioos:station:USF.COMPS:NFB:1,2011-02-02T11:42:00Z,25.0840,-81.0960,21.28,1111122 
COMPS,ioos:station:USF.COMPS:NFB:1,2011-02-02T11:48:00Z,25.0840,-81.0960,21.4,1111122 
COMPS,ioos:station:USF.COMPS:NFB:1,2011-02-02T11:54:00Z,25.0840,-81.0960,21.42,1111122 
COMPS,ioos:station:USF.COMPS:NFB:1,2011-02-02T12:00:00Z,25.0840,-81.0960,21.4,1111122 
COMPS,ioos:station:USF.COMPS:NFB:1,2011-02-02T13:00:00Z,25.0840,-81.0960,21.8,1111122 
COMPS,ioos:station:USF.COMPS:NFB:1,2011-02-02T14:00:00Z,25.0840,-81.0960,22.1,1111122 
COMPS,ioos:station:USF.COMPS:NFB:1,2011-02-02T15:00:00Z,25.0840,-81.0960,22.36,1111122 
COMPS,ioos:station:USF.COMPS:NFB:1,2011-02-02T15:06:00Z,25.0840,-81.0960,22.43,1111122 
COMPS,ioos:station:USF.COMPS:NFB:1,2011-02-02T15:12:00Z,25.0840,-81.0960,22.48,1111122 
COMPS,ioos:station:USF.COMPS:NFB:1,2011-02-02T15:18:00Z,25.0840,-81.0960,22.49,1111122 
COMPS,ioos:station:USF.COMPS:NFB:1,2011-02-02T15:24:00Z,25.0840,-81.0960,22.49,1111122 
COMPS,ioos:station:USF.COMPS:NFB:1,2011-02-02T15:30:00Z,25.0840,-81.0960,22.42,1111122 
COMPS,ioos:station:USF.COMPS:NFB:1,2011-02-02T15:36:00Z,25.0840,-81.0960,22.49,1111122 
COMPS,ioos:station:USF.COMPS:NFB:1,2011-02-02T15:42:00Z,25.0840,-81.0960,22.5,1111122 
COMPS,ioos:station:USF.COMPS:NFB:1,2011-02-02T15:48:00Z,25.0840,-81.0960,22.62,1111122 
COMPS,ioos:station:USF.COMPS:NFB:1,2011-02-02T15:54:00Z,25.0840,-81.0960,22.62,1111122 
COMPS,ioos:station:USF.COMPS:NFB:1,2011-02-02T16:00:00Z,25.0840,-81.0960,22.6,1111122 
COMPS,ioos:station:USF.COMPS:NFB:1,2011-02-02T17:00:00Z,25.0840,-81.0960,22.4,1111122 
COMPS,ioos:station:USF.COMPS:NFB:1,2011-02-02T17:06:00Z,25.0840,-81.0960,22.49,1111122 
COMPS,ioos:station:USF.COMPS:NFB:1,2011-02-02T17:12:00Z,25.0840,-81.0960,22.49,1111122 
COMPS,ioos:station:USF.COMPS:NFB:1,2011-02-02T17:18:00Z,25.0840,-81.0960,22.56,1111122 
COMPS,ioos:station:USF.COMPS:NFB:1,2011-02-02T17:24:00Z,25.0840,-81.0960,22.43,1111122 
COMPS,ioos:station:USF.COMPS:NFB:1,2011-02-02T17:30:00Z,25.0840,-81.0960,22.35,1111122 
COMPS,ioos:station:USF.COMPS:NFB:1,2011-02-02T17:36:00Z,25.0840,-81.0960,22.49,1111122 
COMPS,ioos:station:USF.COMPS:NFB:1,2011-02-02T17:42:00Z,25.0840,-81.0960,22.51,1111122 
COMPS,ioos:station:USF.COMPS:NFB:1,2011-02-02T17:48:00Z,25.0840,-81.0960,22.49,1111122 
COMPS,ioos:station:USF.COMPS:NFB:1,2011-02-02T17:54:00Z,25.0840,-81.0960,22.46,1111122 
COMPS,ioos:station:USF.COMPS:NFB:1,2011-02-02T18:00:00Z,25.0840,-81.0960,22.5,1111122 
COMPS,ioos:station:USF.COMPS:NFB:1,2011-02-02T19:00:00Z,25.0840,-81.0960,22.4,1111122 
COMPS,ioos:station:USF.COMPS:NFB:1,2011-02-02T20:00:00Z,25.0840,-81.0960,23.0,1111122 
COMPS,ioos:station:USF.COMPS:NFB:1,2011-02-02T21:00:00Z,25.0840,-81.0960,23.0,1111122 
COMPS,ioos:station:USF.COMPS:NFB:1,2011-02-02T22:00:00Z,25.0840,-81.0960,23.4,1111122 
COMPS,ioos:station:USF.COMPS:NFB:1,2011-02-02T22:06:00Z,25.0840,-81.0960,23.3,1111122 
COMPS,ioos:station:USF.COMPS:NFB:1,2011-02-02T22:12:00Z,25.0840,-81.0960,23.17,1111122 
COMPS,ioos:station:USF.COMPS:NFB:1,2011-02-02T22:18:00Z,25.0840,-81.0960,23.13,1111122 
COMPS,ioos:station:USF.COMPS:NFB:1,2011-02-02T22:24:00Z,25.0840,-81.0960,23.28,1111122 
COMPS,ioos:station:USF.COMPS:NFB:1,2011-02-02T22:30:00Z,25.0840,-81.0960,23.46,1111122 
COMPS,ioos:station:USF.COMPS:NFB:1,2011-02-02T22:36:00Z,25.0840,-81.0960,23.49,1111122 
COMPS,ioos:station:USF.COMPS:NFB:1,2011-02-02T22:42:00Z,25.0840,-81.0960,23.46,1111122 
COMPS,ioos:station:USF.COMPS:NFB:1,2011-02-02T22:48:00Z,25.0840,-81.0960,23.43,1111122 
COMPS,ioos:station:USF.COMPS:NFB:1,2011-02-02T22:54:00Z,25.0840,-81.0960,23.33,1111122 
COMPS,ioos:station:USF.COMPS:NFB:1,2011-02-02T23:00:00Z,25.0840,-81.0960,23.3,1111122 
COMPS,ioos:station:USF.COMPS:NFB:1,2011-02-03T00:00:00Z,25.0840,-81.0960,22.9,1111122 
COMPS,ioos:station:USF.COMPS:NFB:1,2011-02-03T01:00:00Z,25.0840,-81.0960,22.9,1111122 
COMPS,ioos:station:USF.COMPS:NFB:1,2011-02-03T02:00:00Z,25.0840,-81.0960,22.7,1111122 
COMPS,ioos:station:USF.COMPS:NFB:1,2011-02-03T03:00:00Z,25.0840,-81.0960,22.7,1111122 
COMPS,ioos:station:USF.COMPS:NFB:1,2011-02-03T04:00:00Z,25.0840,-81.0960,22.6,1111122 
COMPS,ioos:station:USF.COMPS:NFB:1,2011-02-03T04:06:00Z,25.0840,-81.0960,22.61,1111122 
COMPS,ioos:station:USF.COMPS:NFB:1,2011-02-03T04:12:00Z,25.0840,-81.0960,22.55,1111122 
COMPS,ioos:station:USF.COMPS:NFB:1,2011-02-03T04:18:00Z,25.0840,-81.0960,22.54,1111122 
COMPS,ioos:station:USF.COMPS:NFB:1,2011-02-03T04:24:00Z,25.0840,-81.0960,22.49,1111122 
COMPS,ioos:station:USF.COMPS:NFB:1,2011-02-03T04:30:00Z,25.0840,-81.0960,22.45,1111122 
COMPS,ioos:station:USF.COMPS:NFB:1,2011-02-03T04:36:00Z,25.0840,-81.0960,22.49,1111122 
COMPS,ioos:station:USF.COMPS:NFB:1,2011-02-03T04:42:00Z,25.0840,-81.0960,22.49,1111122 
COMPS,ioos:station:USF.COMPS:NFB:1,2011-02-03T04:48:00Z,25.0840,-81.0960,22.49,1111122 
COMPS,ioos:station:USF.COMPS:NFB:1,2011-02-03T04:54:00Z,25.0840,-81.0960,22.49,1111122 
COMPS,ioos:station:USF.COMPS:NFB:1,2011-02-03T05:00:00Z,25.0840,-81.0960,22.5,1111122 
COMPS,ioos:station:USF.COMPS:NFB:1,2011-02-03T06:00:00Z,25.0840,-81.0960,22.4,1111122 
COMPS,ioos:station:USF.COMPS:NFB:1,2011-02-03T07:00:00Z,25.0840,-81.0960,22.2,1111122 
COMPS,ioos:station:USF.COMPS:NFB:1,2011-02-03T08:00:00Z,25.0840,-81.0960,21.9,1111122 
COMPS,ioos:station:USF.COMPS:NFB:1,2011-02-03T09:00:00Z,25.0840,-81.0960,21.1,1111122 
COMPS,ioos:station:USF.COMPS:NFB:1,2011-02-03T09:06:00Z,25.0840,-81.0960,21.01,1111122 
COMPS,ioos:station:USF.COMPS:NFB:1,2011-02-03T09:12:00Z,25.0840,-81.0960,21.01,1111122 
COMPS,ioos:station:USF.COMPS:NFB:1,2011-02-03T09:18:00Z,25.0840,-81.0960,21.03,1111122 
COMPS,ioos:station:USF.COMPS:NFB:1,2011-02-03T09:24:00Z,25.0840,-81.0960,21.0,1111122 
COMPS,ioos:station:USF.COMPS:NFB:1,2011-02-03T09:30:00Z,25.0840,-81.0960,20.97,1111122 
COMPS,ioos:station:USF.COMPS:NFB:1,2011-02-03T09:36:00Z,25.0840,-81.0960,21.0,1111122 
COMPS,ioos:station:USF.COMPS:NFB:1,2011-02-03T09:42:00Z,25.0840,-81.0960,21.0,1111122 
COMPS,ioos:station:USF.COMPS:NFB:1,2011-02-03T09:48:00Z,25.0840,-81.0960,21.0,1111122 
COMPS,ioos:station:USF.COMPS:NFB:1,2011-02-03T09:54:00Z,25.0840,-81.0960,21.0,1111122 
COMPS,ioos:station:USF.COMPS:NFB:1,2011-02-03T10:00:00Z,25.0840,-81.0960,21.0,1111122 
COMPS,ioos:station:USF.COMPS:NFB:1,2011-02-03T11:00:00Z,25.0840,-81.0960,21.0,1111122 
COMPS,ioos:station:USF.COMPS:NFB:1,2011-02-03T12:00:00Z,25.0840,-81.0960,20.7,1111122 
COMPS,ioos:station:USF.COMPS:NFB:1,2011-02-03T13:00:00Z,25.0840,-81.0960,21.3,1111122 
COMPS,ioos:station:USF.COMPS:NFB:1,2011-02-03T14:00:00Z,25.0840,-81.0960,21.8,1111122 
COMPS,ioos:station:USF.COMPS:NFB:1,2011-02-03T15:00:00Z,25.0840,-81.0960,22.5,1111122 
COMPS,ioos:station:USF.COMPS:NFB:1,2011-02-03T16:00:00Z,25.0840,-81.0960,23.6,1111122 
COMPS,ioos:station:USF.COMPS:NFB:1,2011-02-03T17:00:00Z,25.0840,-81.0960,24.2,1111122 
COMPS,ioos:station:USF.COMPS:NFB:1,2011-02-03T17:06:00Z,25.0840,-81.0960,24.24,1111122 
COMPS,ioos:station:USF.COMPS:NFB:1,2011-02-03T17:12:00Z,25.0840,-81.0960,24.17,1111122 
COMPS,ioos:station:USF.COMPS:NFB:1,2011-02-03T17:18:00Z,25.0840,-81.0960,24.14,1111122 
COMPS,ioos:station:USF.COMPS:NFB:1,2011-02-03T17:24:00Z,25.0840,-81.0960,24.11,1111122 
COMPS,ioos:station:USF.COMPS:NFB:1,2011-02-03T17:30:00Z,25.0840,-81.0960,24.02,1111122 
COMPS,ioos:station:USF.COMPS:NFB:1,2011-02-03T17:36:00Z,25.0840,-81.0960,24.07,1111122 
COMPS,ioos:station:USF.COMPS:NFB:1,2011-02-03T17:42:00Z,25.0840,-81.0960,24.1,1111122 
COMPS,ioos:station:USF.COMPS:NFB:1,2011-02-03T17:48:00Z,25.0840,-81.0960,24.07,1111122 
COMPS,ioos:station:USF.COMPS:NFB:1,2011-02-03T17:54:00Z,25.0840,-81.0960,23.97,1111122 
COMPS,ioos:station:USF.COMPS:NFB:1,2011-02-03T18:00:00Z,25.0840,-81.0960,24.0,1111122 
COMPS,ioos:station:USF.COMPS:NFB:1,2011-02-03T19:00:00Z,25.0840,-81.0960,24.1,1111122 
COMPS,ioos:station:USF.COMPS:NFB:1,2011-02-03T19:06:00Z,25.0840,-81.0960,23.99,1111122 
COMPS,ioos:station:USF.COMPS:NFB:1,2011-02-03T19:12:00Z,25.0840,-81.0960,23.96,1111122 
COMPS,ioos:station:USF.COMPS:NFB:1,2011-02-03T19:18:00Z,25.0840,-81.0960,24.07,1111122 
COMPS,ioos:station:USF.COMPS:NFB:1,2011-02-03T19:24:00Z,25.0840,-81.0960,23.96,1111122 
COMPS,ioos:station:USF.COMPS:NFB:1,2011-02-03T19:30:00Z,25.0840,-81.0960,23.92,1111122 
COMPS,ioos:station:USF.COMPS:NFB:1,2011-02-03T19:36:00Z,25.0840,-81.0960,23.95,1111122 
COMPS,ioos:station:USF.COMPS:NFB:1,2011-02-03T19:42:00Z,25.0840,-81.0960,23.93,1111122 
COMPS,ioos:station:USF.COMPS:NFB:1,2011-02-03T19:48:00Z,25.0840,-81.0960,23.66,1111122 
COMPS,ioos:station:USF.COMPS:NFB:1,2011-02-03T19:54:00Z,25.0840,-81.0960,23.6,1111122 
COMPS,ioos:station:USF.COMPS:NFB:1,2011-02-03T20:00:00Z,25.0840,-81.0960,23.6,1111122 
COMPS,ioos:station:USF.COMPS:NFB:1,2011-02-03T21:00:00Z,25.0840,-81.0960,23.7,1111122 
COMPS,ioos:station:USF.COMPS:NFB:1,2011-02-03T22:00:00Z,25.0840,-81.0960,23.9,1111122 
COMPS,ioos:station:USF.COMPS:NFB:1,2011-02-03T22:06:00Z,25.0840,-81.0960,23.79,1111122 
COMPS,ioos:station:USF.COMPS:NFB:1,2011-02-03T22:12:00Z,25.0840,-81.0960,23.75,1111122 
COMPS,ioos:station:USF.COMPS:NFB:1,2011-02-03T22:18:00Z,25.0840,-81.0960,23.71,1111122 
COMPS,ioos:station:USF.COMPS:NFB:1,2011-02-03T22:24:00Z,25.0840,-81.0960,23.71,1111122 
COMPS,ioos:station:USF.COMPS:NFB:1,2011-02-03T22:30:00Z,25.0840,-81.0960,23.59,1111122 
COMPS,ioos:station:USF.COMPS:NFB:1,2011-02-03T22:36:00Z,25.0840,-81.0960,23.6,1111122 
COMPS,ioos:station:USF.COMPS:NFB:1,2011-02-03T22:42:00Z,25.0840,-81.0960,23.83,1111122 
COMPS,ioos:station:USF.COMPS:NFB:1,2011-02-03T22:48:00Z,25.0840,-81.0960,23.84,1111122 
COMPS,ioos:station:USF.COMPS:NFB:1,2011-02-03T22:54:00Z,25.0840,-81.0960,23.86,1111122 
COMPS,ioos:station:USF.COMPS:NFB:1,2011-02-03T23:00:00Z,25.0840,-81.0960,23.9,1111122 
COMPS,ioos:station:USF.COMPS:NFB:1,2011-02-04T00:00:00Z,25.0840,-81.0960,24.0,1111122 
COMPS,ioos:station:USF.COMPS:NFB:1,2011-02-04T01:00:00Z,25.0840,-81.0960,23.9,1111122 
COMPS,ioos:station:USF.COMPS:NFB:1,2011-02-04T02:00:00Z,25.0840,-81.0960,23.7,1111122 
COMPS,ioos:station:USF.COMPS:NFB:1,2011-02-04T03:00:00Z,25.0840,-81.0960,23.7,1111122 
COMPS,ioos:station:USF.COMPS:NFB:1,2011-02-04T03:06:00Z,25.0840,-81.0960,23.7,1111122 
COMPS,ioos:station:USF.COMPS:NFB:1,2011-02-04T03:12:00Z,25.0840,-81.0960,23.62,1111122 
COMPS,ioos:station:USF.COMPS:NFB:1,2011-02-04T03:18:00Z,25.0840,-81.0960,23.68,1111122 
COMPS,ioos:station:USF.COMPS:NFB:1,2011-02-04T03:24:00Z,25.0840,-81.0960,23.66,1111122 
COMPS,ioos:station:USF.COMPS:NFB:1,2011-02-04T03:30:00Z,25.0840,-81.0960,23.53,1111122 
COMPS,ioos:station:USF.COMPS:NFB:1,2011-02-04T03:36:00Z,25.0840,-81.0960,23.63,1111122 
COMPS,ioos:station:USF.COMPS:NFB:1,2011-02-04T03:42:00Z,25.0840,-81.0960,23.71,1111122 
COMPS,ioos:station:USF.COMPS:NFB:1,2011-02-04T03:48:00Z,25.0840,-81.0960,23.66,1111122 
COMPS,ioos:station:USF.COMPS:NFB:1,2011-02-04T03:54:00Z,25.0840,-81.0960,23.6,1111122 
COMPS,ioos:station:USF.COMPS:NFB:1,2011-02-04T04:00:00Z,25.0840,-81.0960,23.6,1111122 
COMPS,ioos:station:USF.COMPS:NFB:1,2011-02-04T05:00:00Z,25.0840,-81.0960,23.4,1111122 
COMPS,ioos:station:USF.COMPS:NFB:1,2011-02-04T06:00:00Z,25.0840,-81.0960,23.5,1111122 
COMPS,ioos:station:USF.COMPS:NFB:1,2011-02-04T06:06:00Z,25.0840,-81.0960,23.41,1111122 
COMPS,ioos:station:USF.COMPS:NFB:1,2011-02-04T06:12:00Z,25.0840,-81.0960,23.36,1111122 
COMPS,ioos:station:USF.COMPS:NFB:1,2011-02-04T06:18:00Z,25.0840,-81.0960,23.39,1111122 
COMPS,ioos:station:USF.COMPS:NFB:1,2011-02-04T06:24:00Z,25.0840,-81.0960,23.33,1111122 
COMPS,ioos:station:USF.COMPS:NFB:1,2011-02-04T06:30:00Z,25.0840,-81.0960,23.24,1111122 